TimeEST,TemperatureF,Dew PointF,Humidity,Sea Level PressureIn,VisibilityMPH,Wind Direction,Wind SpeedMPH,Gust SpeedMPH,PrecipitationIn,Events,Conditions,WindDirDegrees,DateUTC
12:54 AM,28.0,24.1,85,30.19,-9999.0,North,-9999.0,-,N/A,,Unknown,0,2011-12-09 05:54:00
1:54 AM,30.0,25.0,82,30.20,-9999.0,North,-9999.0,-,N/A,,Unknown,0,2011-12-09 06:54:00
2:54 AM,30.0,25.0,82,30.21,-9999.0,North,-9999.0,-,N/A,,Unknown,0,2011-12-09 07:54:00
3:54 AM,28.9,25.0,85,30.22,-9999.0,North,-9999.0,-,N/A,,Unknown,0,2011-12-09 08:54:00
4:54 AM,28.9,25.0,85,30.24,-9999.0,North,-9999.0,-,N/A,,Unknown,0,2011-12-09 09:54:00
5:54 AM,27.0,25.0,92,30.25,-9999.0,North,-9999.0,-,N/A,,Unknown,0,2011-12-09 10:54:00
6:54 AM,27.0,25.0,92,30.26,-9999.0,North,-9999.0,-,N/A,,Unknown,0,2011-12-09 11:54:00
7:54 AM,27.0,26.1,96,30.27,-9999.0,North,-9999.0,-,N/A,,Unknown,0,2011-12-09 12:54:00
8:54 AM,30.0,26.1,85,30.27,-9999.0,North,-9999.0,-,N/A,,Unknown,0,2011-12-09 13:54:00
9:54 AM,30.9,26.1,82,30.28,-9999.0,North,-9999.0,-,N/A,,Unknown,0,2011-12-09 14:54:00
10:54 AM,32.0,26.1,79,30.26,-9999.0,North,-9999.0,-,N/A,,Unknown,0,2011-12-09 15:54:00
11:54 AM,33.1,27.0,78,30.23,-9999.0,North,-9999.0,-,N/A,,Unknown,0,2011-12-09 16:54:00
12:54 PM,33.1,26.1,75,30.20,-9999.0,North,-9999.0,-,N/A,,Unknown,0,2011-12-09 17:54:00
1:54 PM,34.0,27.0,75,30.18,-9999.0,North,-9999.0,-,N/A,,Unknown,0,2011-12-09 18:54:00
2:54 PM,35.1,28.0,76,30.17,-9999.0,North,-9999.0,-,N/A,,Unknown,0,2011-12-09 19:54:00
3:54 PM,35.1,28.0,76,30.17,-9999.0,North,-9999.0,-,N/A,,Unknown,0,2011-12-09 20:54:00
4:54 PM,34.0,28.0,79,30.17,-9999.0,North,-9999.0,-,N/A,,Unknown,0,2011-12-09 21:54:00
5:54 PM,34.0,28.0,79,30.18,-9999.0,North,-9999.0,-,N/A,,Unknown,0,2011-12-09 22:54:00
6:54 PM,34.0,28.0,79,30.19,-9999.0,North,-9999.0,-,N/A,,Unknown,0,2011-12-09 23:54:00
7:54 PM,33.1,28.9,85,30.18,-9999.0,North,-9999.0,-,N/A,,Unknown,0,2011-12-10 00:54:00
8:54 PM,34.0,28.9,82,30.18,-9999.0,North,-9999.0,-,N/A,,Unknown,0,2011-12-10 01:54:00
9:54 PM,34.0,28.0,79,30.17,-9999.0,North,-9999.0,-,N/A,,Unknown,0,2011-12-10 02:54:00
10:54 PM,34.0,28.0,79,30.17,-9999.0,North,-9999.0,-,N/A,,Unknown,0,2011-12-10 03:54:00
11:54 PM,34.0,28.9,82,30.15,-9999.0,North,-9999.0,-,N/A,,Unknown,0,2011-12-10 04:54:00